Tracking 25711 objects as of 23-May-2022
HD Live streaming from Space Station
objects crossing your sky now

FARADAY_PHOENIX

Track FARADAY_PHOENIX now!
10-day predictions


NORAD ID: 48924
Int'l Code: 2021-059AX
Perigee: 516.0 km
Apogee: 541.4 km
Inclination: 97.6 °
Period: 95.1 minutes
Semi major axis: 6899 km
RCS: Unknown
Launch date: June 30, 2021
Source: United Kingdom (UK)
Launch site: AIR FORCE EASTERN TEST RANGE (AFETR)
aabbcc
Your satellite tracking list
Your tracking list is empty




NASA's NSSDC Master Catalog

Two Line Element Set (TLE):
1 48924U 21059AX  22142.76918874  .00008327  00000-0  45002-3 0  9999
2 48924  97.5523 272.9318 0018440 180.2899 315.9958 15.14805279 50069
Source of the keplerian elements: AFSPC